Location: Miles
(41.4492°N, 81.6087°W)
Time: 22:56:13
(UTC+00:00)

Vanguard 2 Rocket - Pass Details

Date: 26 September 2024
Orbit: 553 x 3298 km, 32.9° (Epoch: 12 October)

Event Time Altitude Azimuth Distance (km) Brightness Sun altitude
Rises 06:15:02 0° 259° (W) 3,568 - -48.0°
Reaches altitude 10° 06:17:13 10° 253° (WSW) 2,861 - -47.8°
Maximum altitude 06:24:02 49° 180° (S) 1,853 - -47.3°
Exits shadow 06:32:14 20° 117° (ESE) 3,783 9.9 -46.6°
Drops below altitude 10° 06:35:55 10° 111° (ESE) 4,880 10.6 -46.3°
Sets 06:40:52 0° 107° (ESE) 6,314 11.3 -45.8°
